Location: Hokitika
(42.7170°S, 170.9670°E)
Time: 21:31:56
(UTC+13:00)

COSMOS 2428 - Pass Details

Date: 24 January 2019
Orbit: 845 x 856 km, 70.9° (Epoch: 18 October)

Event Time Altitude Azimuth Distance (km) Brightness Sun altitude
Exits shadow 22:59:48 25° 64° (ENE) 1,674 3.7 -16.9°
Maximum altitude 23:00:40 26° 78° (ENE) 1,639 3.8 -17.0°
Drops below altitude 10° 23:05:20 10° 132° (SE) 2,516 5.2 -17.6°
Sets 23:08:10 0° 144° (SE) 3,461 6.1 -17.9°
